FW1241 Weather Reports


Display with metric or nautical units.
time (UTC)temp
F
wind
direction
speed
MPH
gust
MPH
rain 1hr
in
rain 24hr
in
rain mn
in
humidity
%
barometer
mb
20260504234604 65 307 1.0 3.0 0.00 0.00 0.00 59 1013.2
20260504233605 64 325 2.0 5.0 0.00 0.00 0.00 59 1013.3
20260504232605 64 308 1.0 3.0 0.00 0.00 0.00 59 1013.4
20260504231105 64 345 0.0 3.0 0.00 0.00 0.00 60 1013.7
20260504230605 64 301 1.0 2.0 0.00 0.00 0.00 60 1013.7
20260504230105 63 318 1.0 2.0 0.00 0.00 0.00 60 1013.7
20260504225604 63 317 1.0 3.0 0.00 0.00 0.00 59 1013.8
20260504225105 63 290 0.0 3.0 0.00 0.00 0.00 59 1013.8
20260504224604 63 308 1.0 3.0 0.00 0.00 0.00 60 1013.9
20260504223605 63 283 0.0 2.0 0.00 0.00 0.00 59 1014.0
20260504223106 63 296 0.0 2.0 0.00 0.00 0.00 59 1014.1
20260504222604 63 300 0.0 2.0 0.00 0.00 0.00 59 1014.2
20260504221604 63 298 0.0 2.0 0.00 0.00 0.00 59 1014.2
20260504221104 63 323 1.0 2.0 0.00 0.00 0.00 60 1014.3
20260504215604 63 103 0.0 1.0 0.00 0.00 0.00 62 1014.5
20260504215104 63 37 0.0 2.0 0.00 0.00 0.00 61 1014.6
20260504214605 63 342 1.0 2.0 0.00 0.00 0.00 59 1014.6
20260504214105 63 291 0.0 2.0 0.00 0.00 0.00 60 1014.7
20260504212605 63 12 0.0 2.0 0.00 0.00 0.00 61 1014.9
20260504205605 62 308 0.0 3.0 0.00 0.00 0.00 62 1015.1
20260504205105 62 307 1.0 2.0 0.00 0.00 0.00 62 1015.3
20260504204605 62 300 1.0 3.0 0.00 0.00 0.00 62 1015.2
20260504204104 62 92 0.0 1.0 0.00 0.00 0.00 63 1015.2
20260504203604 62 88 0.0 2.0 0.00 0.00 0.00 63 1015.2
20260504202605 62 304 1.0 2.0 0.00 0.00 0.00 63 1015.2
20260504202104 62 292 0.0 3.0 0.00 0.00 0.00 63 1015.2
20260504201604 62 330 0.0 3.0 0.00 0.00 0.00 64 1015.2
20260504200104 62 310 1.0 2.0 0.00 0.00 0.00 64 1015.2
20260504195605 61 313 0.0 3.0 0.00 0.00 0.00 66 1015.3
20260504194605 62 294 1.0 3.0 0.00 0.00 0.00 63 1015.3
20260504193604 62 285 1.0 3.0 0.00 0.00 0.00 64 1015.2
20260504192605 61 297 0.0 1.0 0.00 0.00 0.00 66 1015.2
20260504191105 61 113 0.0 3.0 0.00 0.00 0.00 65 1015.3
20260504190605 61 305 0.0 2.0 0.00 0.00 0.00 65 1015.3
20260504190105 60 288 1.0 5.0 0.00 0.00 0.00 65 1015.3
20260504185604 60 310 1.0 3.0 0.00 0.00 0.00 64 1015.4
20260504185105 60 298 0.0 2.0 0.00 0.00 0.00 65 1015.5
20260504184104 60 310 0.0 1.0 0.00 0.00 0.00 67 1015.6
20260504183605 60 313 0.0 2.0 0.00 0.00 0.00 67 1015.6
20260504182605 60 306 0.0 3.0 0.00 0.00 0.00 67 1015.7
20260504182105 60 300 0.0 1.0 0.00 0.00 0.00 68 1015.7
20260504174605 59 114 0.0 1.0 0.00 0.00 0.00 69 1015.4
20260504172105 59 308 1.0 1.0 0.00 0.00 0.00 69 1015.3
20260504171105 59 331 0.0 2.0 0.00 0.00 0.00 71 1015.3
20260504170605 59 333 0.0 1.0 0.00 0.00 0.00 69 1015.3
20260504170105 58 329 0.0 2.0 0.00 0.00 0.00 69 1015.3
20260504151105 57 83 2.0 7.0 0.00 0.00 0.00 75 1014.8
20260504141104 58 317 1.0 3.0 0.00 0.00 0.00 72 1014.7
20260504140105 58 79 0.0 0.0 0.00 0.00 0.00 73 1014.6
20260504130605 58 335 0.0 2.0 0.00 0.00 0.00 73 1014.0
20260504120105 58 183 0.0 0.0 0.00 0.00 0.00 71 1013.6
20260504110604 58 210 0.0 1.0 0.00 0.00 0.00 68 1013.6
20260504100605 58 191 0.0 0.0 0.00 0.00 0.00 68 1013.2
20260504100105 58 193 0.0 1.0 0.00 0.00 0.00 68 1013.2
20260504081605 59 183 0.0 3.0 0.00 0.00 0.00 64 1013.6
20260504080605 60 185 1.0 3.0 0.00 0.00 0.00 64 1013.6
20260504080105 60 186 0.0 3.0 0.00 0.00 0.00 63 1013.5
20260504060105 62 177 1.0 5.0 0.00 0.00 0.00 58 1012.7
20260504044605 63 99 1.0 3.0 0.00 0.00 0.00 54 1012.0
20260504041604 64 105 0.0 1.0 0.00 0.00 0.00 53 1011.3
20260504040605 64 93 0.0 2.0 0.00 0.00 0.00 52 1011.0
20260504034605 65 301 1.0 3.0 0.00 0.00 0.00 50 1010.6
20260504034105 66 92 1.0 6.0 0.00 0.00 0.00 48 1010.3
20260504033604 66 4 1.0 3.0 0.00 0.00 0.00 48 1010.2
20260504033105 66 316 1.0 3.0 0.00 0.00 0.00 48 1009.9
20260504032104 67 27 0.0 2.0 0.00 0.00 0.00 45 1009.8
20260504030605 68 314 1.0 3.0 0.00 0.00 0.00 43 1009.6
20260504030105 69 308 1.0 3.0 0.00 0.00 0.00 43 1009.5
20260504024605 70 122 1.0 3.0 0.00 0.00 0.00 43 1009.2
20260504024105 70 1 1.0 3.0 0.00 0.00 0.00 42 1009.1
20260504023605 71 329 1.0 3.0 0.00 0.00 0.00 43 1009.0
20260504022605 72 342 1.0 3.0 0.00 0.00 0.00 42 1008.7
20260504022105 73 9 0.0 2.0 0.00 0.00 0.00 44 1008.6
20260504021104 74 358 0.0 1.0 0.00 0.00 0.00 45 1008.5
20260504020605 75 336 0.0 1.0 0.00 0.00 0.00 46 1008.5
20260504013104 77 324 0.0 0.0 0.00 0.00 0.00 44 1008.3
20260504011605 78 301 0.0 1.0 0.00 0.00 0.00 43 1008.4
20260504011105 77 301 0.0 1.0 0.00 0.00 0.00 44 1008.4
20260504010105 77 138 0.0 2.0 0.00 0.00 0.00 44 1008.4
20260504005604 77 340 0.0 3.0 0.00 0.00 0.00 43 1008.3
20260504005104 77 307 0.0 1.0 0.00 0.00 0.00 46 1008.3
20260504004605 77 297 1.0 3.0 0.00 0.00 0.00 44 1008.4
20260504003105 76 302 0.0 1.0 0.00 0.00 0.00 45 1008.3
20260504002604 77 312 1.0 3.0 0.00 0.00 0.00 44 1008.2
20260504002105 77 294 0.0 3.0 0.00 0.00 0.00 44 1008.3
20260504001104 77 270 1.0 3.0 0.00 0.00 0.00 44 1008.4
20260504000604 77 292 0.0 3.0 0.00 0.00 0.00 46 1008.4